This demonstration page uses our WeatherBlox Daily Observations layout. Learn more.

Left ArrowRight Arrow

Hourly Observations for May 22, 2021

Temp ( °F °C ) Dew Point ( °F °C ) Humidity (%) Winds ( mph kmh ) Pressure ( in mb ) Visibility ( mi km ) Precip ( " mm )
12:53 am 00:53 Clear 64 17.8 58 14.4 81 81 Calm 30.37 1029 10 16 0.00 0.00
1:53 am 01:53 Clear 64 17.8 58 14.4 81 81 Calm 30.37 1028 10 16 0.00 0.00
2:53 am 02:53 Clear 65 18.3 58 14.4 78 78 Calm 30.37 1028 10 16 0.00 0.00
3:53 am 03:53 Clear 61 16.1 58 14.4 90 90 Calm 30.37 1028 10 16 0.00 0.00
4:53 am 04:53 Clear 60 15.6 57 13.9 90 90 Calm 30.37 1029 10 16 0.00 0.00
5:53 am 05:53 Clear 60 15.6 57 13.9 90 90 Calm 30.38 1029 10 16 0.00 0.00
6:53 am 06:53 Sunny 58 14.4 56 13.3 93 93 Calm 30.39 1029 10 16 0.00 0.00
7:53 am 07:53 Sunny 62 16.7 59 15 90 90 Calm 30.40 1030 10 16 0.00 0.00
8:53 am 08:53 Sunny 67 19.4 60 15.6 79 79 Calm 30.41 1030 10 16 0.00 0.00
9:53 am 09:53 Sunny 72 22.2 59 15 64 64 Calm 30.42 1030 10 16 0.00 0.00
10:53 am 10:53 Sunny 75 23.9 59 15 58 58 NNW 5 7 30.41 1030 10 16 0.00 0.00
11:53 am 11:53 Sunny 77 25 55 12.8 47 47 Calm 30.40 1030 10 16 0.00 0.00
12:53 pm 12:53 Sunny 79 26.1 54 12.2 42 42 E 5 7 30.38 1029 10 16 0.00 0.00
1:53 pm 13:53 Sunny 81 27.2 54 12.2 39 39 N 6 9 30.35 1028 10 16 0.00 0.00
2:53 pm 14:53 Sunny 83 28.3 55 12.8 38 38 VRB 5 7 30.32 1027 10 16 0.00 0.00
3:53 pm 15:53 Sunny 84 28.9 51 10.6 32 32 undefined N/A 30.29 1026 10 16 0.00 0.00
4:53 pm 16:53 Sunny 85 29.4 49 9.4 29 29 E 5 7 30.28 1025 10 16 0.00 0.00
5:53 pm 17:53 Sunny 84 28.9 48 8.9 29 29 Calm 30.27 1025 10 16 0.00 0.00
6:53 pm 18:53 Sunny 84 28.9 49 9.4 30 30 Calm 30.26 1025 10 16 0.00 0.00
7:53 pm 19:53 Sunny 82 27.8 51 10.6 34 34 S 6 9 30.25 1025 10 16 0.00 0.00
8:53 pm 20:53 Clear 75 23.9 56 13.3 52 52 Calm 30.26 1025 10 16 0.00 0.00
9:53 pm 21:53 Clear 71 21.7 59 15 66 66 Calm 30.28 1025 10 16 0.00 0.00
10:53 pm 22:53 Clear 68 20 59 15 73 73 Calm 30.28 1026 10 16 0.00 0.00
11:53 pm 23:53 Clear 67 19.4 59 15 76 76 Calm 30.28 1025 10 16 0.00 0.00

Powered by AerisWeather